Time,TemperatureF,DewpointF,PressureIn,WindDirection,WindDirectionDegrees,WindSpeedMPH,WindSpeedGustMPH,Humidity,HourlyPrecipIn,Conditions,Clouds,dailyrainin,SoftwareType,DateUTC
2013-02-14 00:09:00,38.5,33.0,29.75,SW,236,6.0,8.0,79,0.00,,,0.00,weatherlink.com 1.10,2013-02-14 06:09:00,
2013-02-14 00:24:00,38.4,32.0,29.75,SSW,212,3.0,8.0,79,0.00,,,0.00,weatherlink.com 1.10,2013-02-14 06:24:00,
2013-02-14 00:39:00,38.3,32.0,29.75,SSW,202,5.0,9.0,79,0.00,,,0.00,weatherlink.com 1.10,2013-02-14 06:39:00,
2013-02-14 00:54:00,38.3,32.0,29.75,SSW,203,5.0,8.0,79,0.00,,,0.00,weatherlink.com 1.10,2013-02-14 06:54:00,
2013-02-14 01:09:00,38.4,32.0,29.74,SW,218,4.0,11.0,78,0.00,,,0.00,weatherlink.com 1.10,2013-02-14 07:09:00,
2013-02-14 01:24:00,38.4,32.0,29.73,SSW,212,4.0,8.0,79,0.00,,,0.00,weatherlink.com 1.10,2013-02-14 07:24:00,
2013-02-14 01:39:00,38.5,33.0,29.73,West,266,2.0,11.0,79,0.00,,,0.00,weatherlink.com 1.10,2013-02-14 07:39:00,
2013-02-14 01:54:00,38.5,33.0,29.72,SW,214,4.0,11.0,79,0.00,,,0.00,weatherlink.com 1.10,2013-02-14 07:54:00,
2013-02-14 02:09:00,38.4,33.0,29.72,WSW,240,5.0,10.0,80,0.00,,,0.00,weatherlink.com 1.10,2013-02-14 08:09:00,
2013-02-14 02:24:00,38.3,33.0,29.72,West,265,8.0,10.0,81,0.00,,,0.00,weatherlink.com 1.10,2013-02-14 08:24:00,
2013-02-14 02:40:00,37.9,33.0,29.73,West,275,6.0,10.0,81,0.00,,,0.00,weatherlink.com 1.10,2013-02-14 08:40:00,
2013-02-14 02:55:00,38.0,33.0,29.72,WSW,254,5.0,12.0,81,0.00,,,0.00,weatherlink.com 1.10,2013-02-14 08:55:00,
2013-02-14 03:10:00,38.1,33.0,29.72,West,279,8.0,15.0,81,0.00,,,0.00,weatherlink.com 1.10,2013-02-14 09:10:00,
2013-02-14 03:25:00,37.7,32.0,29.72,West,266,6.0,13.0,81,0.00,,,0.00,weatherlink.com 1.10,2013-02-14 09:25:00,
2013-02-14 03:40:00,37.2,32.0,29.72,West,259,6.0,12.0,82,0.00,,,0.00,weatherlink.com 1.10,2013-02-14 09:40:00,
2013-02-14 03:55:00,36.8,32.0,29.71,SW,234,5.0,12.0,83,0.00,,,0.00,weatherlink.com 1.10,2013-02-14 09:55:00,
2013-02-14 04:10:00,36.5,32.0,29.72,WSW,238,7.0,12.0,83,0.00,,,0.00,weatherlink.com 1.10,2013-02-14 10:10:00,
2013-02-14 04:25:00,36.4,32.0,29.72,WSW,248,8.0,13.0,83,0.00,,,0.00,weatherlink.com 1.10,2013-02-14 10:25:00,
2013-02-14 04:40:00,36.2,32.0,29.72,West,264,4.0,11.0,83,0.00,,,0.00,weatherlink.com 1.10,2013-02-14 10:40:00,
2013-02-14 04:55:00,35.9,31.0,29.72,WSW,244,4.0,11.0,83,0.00,,,0.00,weatherlink.com 1.10,2013-02-14 10:55:00,
2013-02-14 05:10:00,35.9,31.0,29.73,West,260,7.0,11.0,83,0.00,,,0.00,weatherlink.com 1.10,2013-02-14 11:10:00,
2013-02-14 05:25:00,36.4,31.0,29.73,West,280,9.0,12.0,82,0.00,,,0.00,weatherlink.com 1.10,2013-02-14 11:25:00,
2013-02-14 05:40:00,36.6,31.0,29.73,West,273,2.0,11.0,81,0.00,,,0.00,weatherlink.com 1.10,2013-02-14 11:40:00,
2013-02-14 05:56:00,36.5,31.0,29.74,West,268,3.0,12.0,81,0.00,,,0.00,weatherlink.com 1.10,2013-02-14 11:56:00,
2013-02-14 06:11:00,36.5,31.0,29.74,West,266,3.0,14.0,81,0.00,,,0.00,weatherlink.com 1.10,2013-02-14 12:11:00,
2013-02-14 06:26:00,35.5,31.0,29.74,SW,219,7.0,9.0,83,0.00,,,0.00,weatherlink.com 1.10,2013-02-14 12:26:00,
2013-02-14 06:41:00,35.2,31.0,29.75,West,266,3.0,10.0,84,0.00,,,0.00,weatherlink.com 1.10,2013-02-14 12:41:00,
2013-02-14 06:56:00,35.5,31.0,29.76,WNW,294,4.0,11.0,83,0.00,,,0.00,weatherlink.com 1.10,2013-02-14 12:56:00,
2013-02-14 07:11:00,35.9,31.0,29.76,West,267,6.0,12.0,83,0.00,,,0.00,weatherlink.com 1.10,2013-02-14 13:11:00,
2013-02-14 07:26:00,36.1,31.0,29.76,NW,318,9.0,13.0,83,0.00,,,0.00,weatherlink.com 1.10,2013-02-14 13:26:00,
2013-02-14 07:41:00,36.5,32.0,29.77,NNW,327,5.0,17.0,82,0.00,,,0.00,weatherlink.com 1.10,2013-02-14 13:41:00,
2013-02-14 07:56:00,36.9,32.0,29.78,WNW,286,4.0,12.0,81,0.00,,,0.00,weatherlink.com 1.10,2013-02-14 13:56:00,
2013-02-14 08:11:00,36.8,32.0,29.78,NW,324,8.0,15.0,81,0.00,,,0.00,weatherlink.com 1.10,2013-02-14 14:11:00,
2013-02-14 08:26:00,37.1,31.0,29.79,WNW,300,10.0,20.0,79,0.00,,,0.00,weatherlink.com 1.10,2013-02-14 14:26:00,
2013-02-14 08:41:00,37.0,31.0,29.80,NW,317,4.0,17.0,79,0.00,,,0.00,weatherlink.com 1.10,2013-02-14 14:41:00,
2013-02-14 08:57:00,36.8,31.0,29.80,NW,304,10.0,19.0,78,0.00,,,0.00,weatherlink.com 1.10,2013-02-14 14:57:00,
2013-02-14 09:12:00,36.8,31.0,29.81,NNW,333,4.0,21.0,78,0.00,,,0.00,weatherlink.com 1.10,2013-02-14 15:12:00,
2013-02-14 09:27:00,36.9,31.0,29.81,West,268,6.0,15.0,78,0.00,,,0.00,weatherlink.com 1.10,2013-02-14 15:27:00,
2013-02-14 09:42:00,36.9,31.0,29.82,NW,313,11.0,19.0,78,0.00,,,0.00,weatherlink.com 1.10,2013-02-14 15:42:00,
2013-02-14 09:57:00,37.0,31.0,29.82,WNW,290,9.0,16.0,78,0.00,,,0.00,weatherlink.com 1.10,2013-02-14 15:57:00,
2013-02-14 10:12:00,37.4,31.0,29.83,NW,306,5.0,15.0,79,0.00,,,0.00,weatherlink.com 1.10,2013-02-14 16:12:00,
2013-02-14 10:27:00,37.7,31.0,29.84,NW,313,11.0,15.0,78,0.00,,,0.00,weatherlink.com 1.10,2013-02-14 16:27:00,
2013-02-14 10:42:00,37.9,32.0,29.84,North,355,9.0,17.0,78,0.00,,,0.00,weatherlink.com 1.10,2013-02-14 16:42:00,
2013-02-14 10:57:00,38.7,32.0,29.85,WNW,300,7.0,15.0,77,0.00,,,0.00,weatherlink.com 1.10,2013-02-14 16:57:00,
2013-02-14 11:12:00,38.7,32.0,29.86,WNW,295,8.0,16.0,76,0.00,,,0.00,weatherlink.com 1.10,2013-02-14 17:12:00,
2013-02-14 11:27:00,38.5,31.0,29.86,North,360,6.0,19.0,75,0.00,,,0.00,weatherlink.com 1.10,2013-02-14 17:27:00,
2013-02-14 11:42:00,39.0,32.0,29.87,WNW,296,7.0,15.0,75,0.00,,,0.00,weatherlink.com 1.10,2013-02-14 17:42:00,
2013-02-14 11:57:00,39.3,32.0,29.86,NW,319,10.0,16.0,75,0.00,,,0.00,weatherlink.com 1.10,2013-02-14 17:57:00,
2013-02-14 12:12:00,39.8,32.0,29.86,NW,325,10.0,19.0,73,0.00,,,0.00,weatherlink.com 1.10,2013-02-14 18:12:00,
2013-02-14 12:28:00,40.1,32.0,29.86,NNW,347,13.0,17.0,72,0.00,,,0.00,weatherlink.com 1.10,2013-02-14 18:28:00,
2013-02-14 12:43:00,40.2,32.0,29.88,NNW,334,10.0,15.0,72,0.00,,,0.00,weatherlink.com 1.10,2013-02-14 18:43:00,
2013-02-14 12:58:00,40.6,32.0,29.88,SW,232,7.0,16.0,71,0.00,,,0.00,weatherlink.com 1.10,2013-02-14 18:58:00,
2013-02-14 13:13:00,40.5,31.0,29.89,WNW,300,6.0,20.0,70,0.00,,,0.00,weatherlink.com 1.10,2013-02-14 19:13:00,
2013-02-14 13:28:00,40.3,30.0,29.89,WNW,302,4.0,16.0,68,0.00,,,0.00,weatherlink.com 1.10,2013-02-14 19:28:00,
2013-02-14 13:43:00,40.2,31.0,29.89,NW,305,8.0,17.0,69,0.00,,,0.00,weatherlink.com 1.10,2013-02-14 19:43:00,
2013-02-14 13:58:00,40.1,31.0,29.90,SW,231,6.0,14.0,69,0.00,,,0.00,weatherlink.com 1.10,2013-02-14 19:58:00,
2013-02-14 14:13:00,39.5,31.0,29.91,NNW,327,5.0,14.0,71,0.00,,,0.00,weatherlink.com 1.10,2013-02-14 20:13:00,
2013-02-14 14:28:00,39.9,31.0,29.91,NNW,331,6.0,13.0,70,0.00,,,0.00,weatherlink.com 1.10,2013-02-14 20:28:00,
2013-02-14 14:43:00,39.8,31.0,29.92,WNW,298,6.0,14.0,72,0.00,,,0.00,weatherlink.com 1.10,2013-02-14 20:43:00,
2013-02-14 14:58:00,39.7,31.0,29.93,NW,321,5.0,12.0,71,0.00,,,0.00,weatherlink.com 1.10,2013-02-14 20:58:00,
2013-02-14 15:13:00,39.9,31.0,29.93,NW,315,5.0,13.0,70,0.00,,,0.00,weatherlink.com 1.10,2013-02-14 21:13:00,
2013-02-14 15:28:00,39.7,31.0,29.94,WNW,303,7.0,12.0,72,0.00,,,0.00,weatherlink.com 1.10,2013-02-14 21:28:00,
2013-02-14 15:43:00,39.5,32.0,29.95,SW,235,5.0,11.0,73,0.00,,,0.00,weatherlink.com 1.10,2013-02-14 21:43:00,
2013-02-14 15:59:00,39.2,31.0,29.96,NW,309,5.0,10.0,73,0.00,,,0.00,weatherlink.com 1.10,2013-02-14 21:59:00,
2013-02-14 16:14:00,39.1,31.0,29.96,NW,309,6.0,8.0,73,0.00,,,0.00,weatherlink.com 1.10,2013-02-14 22:14:00,
2013-02-14 16:29:00,38.7,31.0,29.97,NW,313,8.0,9.0,74,0.00,,,0.00,weatherlink.com 1.10,2013-02-14 22:29:00,
2013-02-14 16:44:00,38.5,31.0,29.98,West,273,7.0,9.0,73,0.00,,,0.00,weatherlink.com 1.10,2013-02-14 22:44:00,
2013-02-14 16:59:00,38.2,31.0,29.97,NNW,346,3.0,10.0,75,0.00,,,0.00,weatherlink.com 1.10,2013-02-14 22:59:00,
2013-02-14 17:14:00,37.9,31.0,29.98,WNW,293,3.0,10.0,75,0.00,,,0.00,weatherlink.com 1.10,2013-02-14 23:14:00,
2013-02-14 17:29:00,37.3,30.0,29.99,WNW,296,6.0,11.0,76,0.00,,,0.00,weatherlink.com 1.10,2013-02-14 23:29:00,
2013-02-14 17:44:00,37.0,30.0,29.99,NW,315,3.0,10.0,77,0.00,,,0.00,weatherlink.com 1.10,2013-02-14 23:44:00,
2013-02-14 17:59:00,37.0,30.0,29.98,NW,320,2.0,7.0,76,0.00,,,0.00,weatherlink.com 1.10,2013-02-14 23:59:00,
2013-02-14 18:14:00,36.1,30.0,29.99,NW,311,3.0,5.0,77,0.00,,,0.00,weatherlink.com 1.10,2013-02-15 00:14:00,
2013-02-14 18:29:00,35.5,30.0,30.00,NNW,329,2.0,5.0,79,0.00,,,0.00,weatherlink.com 1.10,2013-02-15 00:29:00,
2013-02-14 18:44:00,35.0,29.0,30.00,NW,306,0.0,4.0,80,0.00,,,0.00,weatherlink.com 1.10,2013-02-15 00:44:00,
2013-02-14 18:59:00,35.2,30.0,30.00,WNW,298,2.0,6.0,80,0.00,,,0.00,weatherlink.com 1.10,2013-02-15 00:59:00,
2013-02-14 19:15:00,35.8,30.0,30.01,NW,325,3.0,7.0,79,0.00,,,0.00,weatherlink.com 1.10,2013-02-15 01:15:00,
2013-02-14 19:30:00,35.7,30.0,30.01,NW,320,2.0,7.0,80,0.00,,,0.00,weatherlink.com 1.10,2013-02-15 01:30:00,
2013-02-14 19:45:00,35.5,30.0,30.01,NW,315,3.0,6.0,81,0.00,,,0.00,weatherlink.com 1.10,2013-02-15 01:45:00,
2013-02-14 20:00:00,34.8,30.0,30.02,NW,304,1.0,5.0,83,0.00,,,0.00,weatherlink.com 1.10,2013-02-15 02:00:00,
2013-02-14 20:15:00,33.9,30.0,30.02,NW,309,0.0,4.0,85,0.00,,,0.00,weatherlink.com 1.10,2013-02-15 02:15:00,
2013-02-14 20:30:00,33.5,30.0,30.02,WNW,292,2.0,5.0,87,0.00,,,0.00,weatherlink.com 1.10,2013-02-15 02:30:00,
2013-02-14 20:45:00,33.4,30.0,30.02,WNW,295,0.0,4.0,87,0.00,,,0.00,weatherlink.com 1.10,2013-02-15 02:45:00,
2013-02-14 21:00:00,33.4,31.0,30.02,NW,312,3.0,5.0,89,0.00,,,0.00,weatherlink.com 1.10,2013-02-15 03:00:00,
2013-02-14 21:15:00,33.6,31.0,30.02,NNW,342,3.0,6.0,89,0.00,,,0.00,weatherlink.com 1.10,2013-02-15 03:15:00,
2013-02-14 21:30:00,33.7,31.0,30.03,WNW,302,5.0,6.0,89,0.00,,,0.00,weatherlink.com 1.10,2013-02-15 03:30:00,
2013-02-14 21:45:00,33.9,31.0,30.03,NNW,337,5.0,7.0,90,0.00,,,0.00,weatherlink.com 1.10,2013-02-15 03:45:00,
2013-02-14 22:00:00,33.8,32.0,30.04,NNW,341,4.0,7.0,91,0.00,,,0.00,weatherlink.com 1.10,2013-02-15 04:00:00,
2013-02-14 22:15:00,33.7,31.0,30.04,North,355,1.0,6.0,91,0.00,,,0.00,weatherlink.com 1.10,2013-02-15 04:15:00,
2013-02-14 22:30:00,33.5,31.0,30.04,NW,307,4.0,5.0,91,0.00,,,0.00,weatherlink.com 1.10,2013-02-15 04:30:00,
2013-02-14 22:46:00,33.4,31.0,30.04,NW,325,4.0,9.0,90,0.00,,,0.00,weatherlink.com 1.10,2013-02-15 04:46:00,
2013-02-14 23:01:00,33.3,30.0,30.04,NNW,336,4.0,8.0,88,0.00,,,0.00,weatherlink.com 1.10,2013-02-15 05:01:00,
2013-02-14 23:16:00,32.9,30.0,30.05,NW,313,4.0,11.0,87,0.00,,,0.00,weatherlink.com 1.10,2013-02-15 05:16:00,
2013-02-14 23:31:00,32.7,29.0,30.05,NNW,338,5.0,12.0,86,0.00,,,0.00,weatherlink.com 1.10,2013-02-15 05:31:00,
2013-02-14 23:46:00,32.0,28.0,30.06,NW,308,5.0,10.0,84,0.00,,,0.00,weatherlink.com 1.10,2013-02-15 05:46:00,